Regional Weather Roundup
Issued by NWS Northern Indiana

Home | Current Version | Previous Version | Graphics & Text | Print | Product List | Glossary On
Versions: 1 2 3 4 5 6 7 8 9 10 11 12 13 14 15 16 17 18 19 20 21 22 23 24 25 26 27 28 29 30 31 32 33 34 35 36 37 38 39 40 41 42 43 44 45 46 47 48 49 50
000
ASUS43 KIWX 271010
RWRIWX

KIWX WEATHER ROUNDUP
NATIONAL WEATHER SERVICE NORTHERN INDIANA
600 AM EDT WED MAY 27 2015

NOTE: "FAIR" INDICATES FEW OR NO CLOUDS BELOW 12,000 FEET WITH NO
SIGNIFICANT WEATHER AND/OR OBSTRUCTIONS TO VISIBILITY.

* THESE STATIONS ARE NOT UNDER NWS QUALITY CONTROL. THEY ALSO MAY NOT
  REPORT WEATHER SUCH AS PRECIPITATION OR FOG.

INZ001>027-271100-
NORTHERN INDIANA

CITY           SKY/WX    TMP DP  RH WIND       PRES   REMARKS
GARY*          PTCLDY    68  63  83 S8        29.91R
VALPARAISO     CLEAR     65  59  81 SW12      29.94R
MICHIGAN CITY* PTCLDY    64  59  82 SW8       29.92R
LAPORTE*       PTCLDY    67  61  83 SW10      29.94R
KNOX*          CLEAR     64  59  82 SW14      29.94R
SOUTH BEND     CLEAR     66  59  78 SW12      29.93R
GOSHEN         CLEAR     65  59  81 SW12      29.95R
MONTICELLO*    CLEAR     64  62  92 S12       29.97R
LOGANSPORT*    CLEAR     64  57  77 SW17      29.99R
ROCHESTER*     CLEAR     68  61  77 SW9       29.97R
WARSAW*        CLEAR     64  61  88 SW6       29.96R
ANGOLA*        PTCLDY    64  54  68 SW8       29.96R
FORT WAYNE     PTCLDY    63  60  90 S10       29.99R
HUNTINGTON*    CLEAR     64  60  85 SW7       30.00R
PERU/GRISSOM   CLEAR     66  61  84 SW15      29.98R
MARION*        CLEAR     63  58  86 S12       30.02R

$$
INZ028>050-271100-
CENTRAL INDIANA

CITY           SKY/WX    TMP DP  RH WIND       PRES   REMARKS
LAFAYETTE      CLEAR     65  60  84 SW6       29.98R
KOKOMO*        PTCLDY    66  59  77 SW15      30.01R
MUNCIE*        CLEAR     65  60  84 SW10      30.03R
INDIANAPOLIS   PTCLDY    63  59  87 SW9       30.03R

$$
MIZ043>046-050>051-056>058-064>065-071>073-077>080-271100-
SOUTHWEST LOWER MICHIGAN

CITY           SKY/WX    TMP DP  RH WIND       PRES   REMARKS
BATTLE CREEK   CLOUDY    67  59  75 SW16      29.91R
BENTON HARBOR  PTCLDY    66  60  81 SW13      29.90R
COLDWATER*     CLOUDY    64  58  81 SW9G16    29.95R
HILLSDALE*     PTCLDY    65  62  90 SW10G17   29.95R
HOLLAND        MOCLDY    65  59  81 SW16G26   29.87R
GRAND RAPIDS   MOCLDY    67  61  81 SW14      29.87R
KALAMAZOO      CLOUDY    67  59  75 SW13      29.92R
STURGIS*       PTCLDY    64  61  88 SW12G17   29.94R
THREE RIVERS*  FAIR      65  59  82 SW9       29.93R

$$
OHZ001>008-015>018-024>025-271100-
NORTHWEST OHIO

CITY           SKY/WX    TMP DP  RH WIND       PRES   REMARKS
WAUSEON*       FAIR      66  63  88 SW12      29.96S
DEFIANCE       CLEAR     66  60  81 SW10      29.98R
FINDLAY        FAIR      67  63  87 S13       29.99S
TOLEDO EXPRESS CLEAR     66  63  90 SW9       29.96R
TOLEDO METCALF CLEAR     68  62  81 SW13      29.98R
LIMA           PTCLDY    65  62  90 SW10      30.02R

$$
AND FOR LAKE MICHIGAN COASTAL AND OPEN LAKE BUOY OBSERVATIONS

STATION/POSITION TEMP    WIND        PRES    VSBY  WAVE
                 AIR SEA DIR/SP/G                  HT/PER
                 (F)     (DEG/KT/KT) (MB)    (MI)  (FT/S)
CALUMET HARBOR           210/  7/ 11   N/A
MICHIGAN CITY     67     180/ 16/ 19   N/A
BURNS HARBOR      67     210/ 13/ 19 1013.2R
SAINT JOSEPH      66     180/ 13/ 20 1013.5R
SOUTH LAKE BUOY   46 38  200/ 12/ 14 1011.2R         1/ 4
4 MI NW BRIDGMAN  60 55  230/ 12/ 12   N/A           2/ 4
MICHIGAN CITY     62 52  220/ 14/ 17   N/A           2/ 3

$$
&&



USA.gov is the U.S. government's official web portal to all federal, state and local government web resources and services.